Regional Weather Roundup
Issued by NWS

Home | Current Version | Previous Version | Text Only | Print | Product List | Glossary On
Versions: 1 2 3 4 5 6 7 8 9 10 11 12 13 14 15 16 17 18 19 20 21 22 23 24 25 26 27
000
ASCA42 TJSJ 240710
RWRPR
PUERTO RICO/U.S. VIRGIN ISLANDS HOURLY WEATHER ROUNDUP
NATIONAL WEATHER SERVICE SAN JUAN PR
300 AM AST SAT JUN 24 2017

PRZ001>002-007>008-010-240800-
PUERTO RICO

CITY           SKY/WX    TMP DP  RH WIND       PRES   REMARKS
SAN JUAN LMM   MOCLDY    81  73  78 E5        29.98F
CEIBA          PTCLDY    79  73  83 E6        30.00F
$$

VIZ001>002-240800-
U.S. VIRGIN ISLANDS

CITY           SKY/WX    TMP DP  RH WIND       PRES   REMARKS
CHARLOTTE AMA  CLEAR     82  73  74 E9        29.97F
CHRISTIANSTED  CLEAR     77  73  88 NE7       29.98F
$$

HOURLY WEATHER ROUNDUP FOR THE NEWS MEDIA

CITY           SKY/WX    TMP DP  RH WIND       PRES   REMARKS
ORLANDO        PTCLDY    80  75  84 S8        30.04F
NEW YORK       MOCLDY    75  73  93 SW12      29.63F
NEWARK         LGT RAIN  73  71  93 SW9       29.62F
CHICAGO        PTCLDY    66  54  65 W12       29.87R
HARTFORD       MOCLDY    71  69  93 SW15      29.59F
BOSTON         MOCLDY    71  70  96 S14       29.54F
DALLAS         TSTM      75  72  90 SW13      29.96R
PHILADELPHIA   CLOUDY    83  70  64 SW14      29.62F
LOS ANGELES    CLOUDY    62  60  93 W9        29.92S FOG
WASHINGTON DC  LGT RAIN  75  72  90 S7        29.60F



USA.gov is the U.S. government's official web portal to all federal, state and local government web resources and services.